Regional Weather Roundup
Issued by NWS Northern Indiana

Home | Current Version | Previous Version | Graphics & Text | Print | Product List | Glossary On
Versions: 1 2 3 4 5 6 7 8 9 10 11 12 13 14 15 16 17 18 19 20 21 22 23 24 25 26 27 28 29 30 31 32 33 34 35 36 37 38 39 40 41 42 43 44 45 46 47 48 49 50
000
ASUS43 KIWX 160110
RWRIWX

KIWX WEATHER ROUNDUP
NATIONAL WEATHER SERVICE NORTHERN INDIANA
900 PM EDT TUE APR 15 2014

NOTE: "FAIR" INDICATES FEW OR NO CLOUDS BELOW 12,000 FEET WITH NO
SIGNIFICANT WEATHER AND/OR OBSTRUCTIONS TO VISIBILITY.

* THESE STATIONS ARE NOT UNDER NWS QUALITY CONTROL. THEY ALSO MAY NOT
  REPORT WEATHER SUCH AS PRECIPITATION OR FOG.

INZ001>027-160200-
NORTHERN INDIANA

CITY           SKY/WX    TMP DP  RH WIND       PRES   REMARKS
GARY*          PTCLDY    36  18  48 CALM      30.18R
VALPARAISO     CLEAR     31  14  49 CALM      30.19R
MICHIGAN CITY* CLEAR     32  18  55 CALM      30.20R
LAPORTE*       CLEAR     30  16  56 CALM      30.19R
SOUTH BEND     CLEAR     30  12  47 CALM      30.20R
ELKHART*       PTCLDY    30   9  40 CALM      30.20
GOSHEN         CLEAR     30  15  53 NW5       30.20R WCI  25
MONTICELLO*    CLEAR     33  16  49 CALM      30.19S
LOGANSPORT*    CLEAR     32  12  43 CALM      30.21R
ROCHESTER*     CLEAR     32  16  51 CALM      30.20R
WARSAW*        CLEAR     30  14  51 CALM      30.20R
ANGOLA*        CLEAR     28  10  47 NW6       30.19R WCI  22
FORT WAYNE     PTCLDY    30  10  43 NW6       30.21R WCI  24
HUNTINGTON*    FAIR      30  11  44 CALM      30.21R
PERU/GRISSOM   PTCLDY    33  14  46 W2        30.20R
MARION*        PTCLDY    31  13  46 CALM      30.21R

$$
INZ028>050-160200-
CENTRAL INDIANA

CITY           SKY/WX    TMP DP  RH WIND       PRES   REMARKS
LAFAYETTE      CLEAR     34  16  47 CALM      30.20R
KOKOMO*        PTCLDY    32  18  55 CALM      30.20R
MUNCIE*        CLEAR     30  19  63 NW5       30.20R WCI  25
INDIANAPOLIS   PTCLDY    32  16  51 N6        30.20R WCI  26

$$
MIZ043>046-050>051-056>058-064>065-071>073-077>080-160200-
SOUTHWEST LOWER MICHIGAN

CITY           SKY/WX    TMP DP  RH WIND       PRES   REMARKS
BATTLE CREEK   CLEAR     28   8  43 NW7       30.18R WCI  21
BENTON HARBOR  CLEAR     28  13  53 CALM      30.20R
COLDWATER*     CLEAR     28  10  47 NW3       30.18R
HILLSDALE*     CLEAR     28   6  40 NW7       30.17R WCI  21
HOLLAND        CLEAR     29  15  56 W5        30.20R WCI  24
GRAND RAPIDS   PTCLDY    30  10  43 W9        30.18R WCI  22
KALAMAZOO      CLEAR     28   9  44 NW7       30.19R WCI  21
STURGIS*       CLEAR     28  10  47 CALM      30.18R
THREE RIVERS*  FAIR      30  11  45 NW3       30.20R

$$
OHZ001>008-015>018-024>025-160200-
NORTHWEST OHIO

CITY           SKY/WX    TMP DP  RH WIND       PRES   REMARKS
WAUSEON*       FAIR      30  14  51 NW9       30.19R WCI  22
DEFIANCE       CLEAR     31  10  41 NW8       30.21R WCI  23
FINDLAY        MOCLDY    30  15  53 W9        30.18R WCI  22
TOLEDO EXPRESS PTCLDY    30  13  49 NW9       30.18R WCI  22
TOLEDO METCALF PTCLDY    31  13  47 NW13      30.19R WCI  21
LIMA           CLEAR     31  16  54 NW13      30.19R WCI  21

$$
&&



USA.gov is the U.S. government's official web portal to all federal, state and local government web resources and services.